Retour au catalogue

JILIN-1 GAOFEN 07D 04 XING

ActifScienceSSO
NORAD 69545·PAYLOAD·🇨🇳 China
Ce nom de satellite n'a pas encore été confirmé par des sources officielles.

Lancé Jun 15, 2026 depuis Jiuquan Satellite Launch Center

Loading…

Prochains Passages (prochaines 24 heures)

TLE

FraisSource: Space-Track

Époque: Sep 14, 2026, 10:56 UTC

1 69545U 26134H   26257.45577079  .00003492  00000-0  22066-3 0  9998
2 69545  97.6958 327.9871 0017093 330.5437  29.4827 15.09608476 13762

Suivez JILIN-1 GAOFEN 07D 04 XING en temps réel avec AllMySat

Download on the App Store